EW8697 Weather Reports


time (UTC)temp
C
wind
direction
speed
KPH
gust
KPH
rain 1hr
cm
rain 24hr
cm
rain mn
cm
humidity
%
barometer
mb
20260504010017 11 124 0.0 0.0 0.00 0.00 0.00 49 1008.3
20260504004519 11 124 0.0 0.0 0.00 0.00 0.00 47 1008.3
20260504003026 12 124 0.0 0.0 0.00 0.00 0.00 46 1008.2
20260504001525 12 124 0.0 0.0 0.00 0.00 0.00 44 1008.3
20260504000020 13 124 0.0 1.6 0.00 0.00 0.00 43 1008.3
20260503234527 13 123 0.0 3.2 0.00 0.00 0.00 43 1008.4
20260503233012 13 124 0.0 1.6 0.00 0.00 0.00 42 1008.4
20260503231529 13 123 0.0 0.0 0.00 0.00 0.00 43 1008.5
20260503230039 13 123 0.0 9.7 0.00 0.00 0.00 42 1008.5
20260503224522 13 123 0.0 0.0 0.00 0.00 0.00 42 1008.5
20260503223018 13 123 0.0 11.3 0.00 0.00 0.00 41 1008.7
20260503221523 13 124 0.0 11.3 0.00 0.00 0.00 40 1008.7
20260503220029 13 124 0.0 14.5 0.00 0.00 0.00 41 1008.8
20260503214511 14 123 0.0 1.6 0.00 0.00 0.00 40 1008.9
20260503213026 14 123 0.0 12.9 0.00 0.00 0.00 39 1008.8
20260503211521 15 123 0.0 6.4 0.00 0.00 0.00 40 1008.7
20260503210018 14 124 0.0 11.3 0.00 0.00 0.00 41 1008.8
20260503204515 14 123 0.0 11.3 0.00 0.00 0.00 43 1008.8
20260503203020 14 123 0.0 16.1 0.00 0.00 0.00 41 1009.0
20260503201532 14 123 0.0 4.8 0.00 0.00 0.00 43 1009.0
20260503200024 14 124 0.0 14.5 0.00 0.00 0.00 40 1009.3
20260503194523 14 123 0.0 4.8 0.00 0.00 0.00 38 1009.7
20260503193018 14 123 0.0 4.8 0.00 0.00 0.00 38 1009.9
20260503191519 13 123 0.0 3.2 0.00 0.00 0.00 39 1010.0
20260503190016 14 124 0.0 27.4 0.00 0.00 0.00 42 1010.2
20260503184527 14 123 0.0 11.3 0.00 0.00 0.00 40 1010.5
20260503183034 13 123 0.0 8.0 0.00 0.00 0.00 42 1010.7
20260503181522 13 124 0.0 9.7 0.00 0.00 0.00 42 1010.8
20260503180019 13 123 0.0 12.9 0.00 0.00 0.00 43 1010.9
20260503174513 13 122 0.0 17.7 0.00 0.00 0.00 44 1011.3
20260503173029 13 124 0.0 12.9 0.00 0.00 0.00 45 1011.4
20260503171523 13 123 0.0 11.3 0.00 0.00 0.00 44 1011.6
20260503081532 1 123 0.0 0.0 0.00 0.18 0.00 88 1012.6
20260503071529 1 124 0.0 0.0 0.00 0.18 0.00 88 1012.5
20260503054522 2 124 0.0 0.0 0.00 0.33 0.00 82 1012.8
20260503053021 2 124 0.0 0.0 0.00 0.33 0.00 80 1012.9
20260503051513 3 124 0.0 0.0 0.00 0.33 0.00 79 1012.9
20260503050035 3 124 0.0 0.0 0.00 0.33 0.00 79 1012.9
20260503044526 3 123 0.0 0.0 0.00 0.33 0.00 80 1013.0
20260503043020 3 123 0.0 0.0 0.00 0.33 0.00 80 1013.0
20260503041514 3 123 0.0 0.0 0.00 0.33 0.00 80 1013.1
20260503040012 3 123 0.0 0.0 0.00 0.33 0.00 81 1013.2
20260503034535 3 123 0.0 0.0 0.00 0.33 0.33 80 1013.2
20260503033029 3 123 0.0 0.0 0.00 0.33 0.33 80 1013.2
20260503031521 3 124 0.0 0.0 0.00 0.33 0.33 80 1013.3
20260503030020 3 124 0.0 0.0 0.00 0.33 0.33 81 1013.4
20260503024516 3 124 0.0 0.0 0.00 0.33 0.33 81 1013.5
20260503023010 2 123 0.0 0.0 0.00 0.33 0.33 79 1013.6
20260503021523 2 123 0.0 0.0 0.00 0.33 0.33 77 1013.5
20260503020023 2 124 0.0 0.0 0.00 0.33 0.33 76 1013.5
20260503014528 2 123 0.0 0.0 0.00 0.33 0.33 76 1013.5
20260503013024 2 124 0.0 0.0 0.00 0.33 0.33 74 1013.6
20260503011512 2 124 0.0 0.0 0.00 0.33 0.33 72 1013.5